New Bern, NC

11:12 AM EST on January 22, 2018 (GMT -0500)
Craven County Regional

Weather History for KEWN - June, 2014

Change the Weather History Date:

Monday, June 16, 2014

  Actual Average Record
Temperature  
Mean Temperature 80 °F 78 °F  
Max Temperature 93 °F 87 °F 100 °F (2015)
Min Temperature 67 °F 68 °F 54 °F (1959)
Degree Days  
Heating Degree Days 0 0  
Month to date heating degree days 0 0  
Since 1 June heating degree days 0 0  
Since 1 July heating degree days 2637 2701  
Cooling Degree Days 15 12  
Month to date cooling degree days 196 171  
Year to date cooling degree days 557 414  
Since 1 June cooling degree days 196 171  
Growing Degree Days 28 (Base 50)    
Moisture  
Dew Point 67 °F    
Average Humidity 67    
Maximum Humidity 93    
Minimum Humidity 41    
Precipitation  
Precipitation 0.00 in 0.15 in 2.51 in (2010)
Month to date precipitation 2.07 2.38  
Year to date precipitation 19.95 21.77  
Snow  
Snow 0.00 in - - ()
Month to date snowfall 0.0  
Since 1 July snowfall 14.0  
Snow Depth 0.00 in    
Sea Level Pressure  
Sea Level Pressure 30.17 in    
Wind  
Wind Speed 4 mph (SSW)    
Max Wind Speed 14 mph    
Max Gust Speed 21 mph    
Visibility 7 miles    
Events Fog    
T = Trace of Precipitation, MM = Missing Value Source: NWS Daily Summary

Daily Weather History Graph

Daily Weather History Graph

Search for Another Location

Airport or City:

Trip Planner

Search our weather history database for the weather conditions in past years. The results will help you decide how hot, cold, wet, or windy it might be!

Date:

Astronomy

Jun. 16, 2014 Rise Set
Actual Time 5:53 AM EDT 8:24 PM EDT
Civil Twilight 5:23 AM EDT 8:54 PM EDT
Nautical Twilight 4:47 AM EDT 9:30 PM EDT
Astronomical Twilight 4:06 AM EDT 10:11 PM EDT
Moon 11:23 PM EDT (6/16) 9:47 AM EDT (6/16)
Length of Visible Light 15h 30m
Length of Day
14h 30m
Waning Gibbous, 83% of the Moon is Illuminated
Jun 16
Waning Gibbous
Jun 19
Last Quarter
Jun 27
New
Jul 5
First Quarter
Jul 12
Full

Hourly Weather History & Observations

Time (EDT) Temp. Heat Index Dew Point Humidity Pressure Visibility Wind Dir Wind Speed Gust Speed Precip Events Conditions
12:54 AM 69.1 °F - 64.9 °F 87% 30.16 in 9.0 mi South 3.5 mph - N/A   Clear
1:54 AM 70.0 °F - 66.0 °F 87% 30.16 in 10.0 mi Calm Calm - N/A   Clear
2:54 AM 68.0 °F - 64.0 °F 87% 30.16 in 7.0 mi Calm Calm - N/A   Clear
3:41 AM 66.2 °F - 64.4 °F 94% 30.16 in 1.5 mi Calm Calm - N/A   Clear
3:54 AM 68.0 °F - 64.9 °F 90% 30.16 in 4.0 mi Calm Calm - N/A   Clear
4:21 AM 68.0 °F - 64.4 °F 88% 30.16 in 1.0 mi Calm Calm - N/A   Mist
4:23 AM 68.0 °F - 64.4 °F 88% 30.16 in 0.5 mi Calm Calm - N/A Fog Fog
4:39 AM 69.8 °F - 66.2 °F 88% 30.17 in 1.0 mi Calm Calm - N/A   Mist
4:46 AM 68.0 °F - 66.2 °F 94% 30.17 in 1.8 mi Calm Calm - N/A   Partly Cloudy
4:54 AM 66.9 °F - 64.9 °F 93% 30.17 in 1.2 mi Calm Calm - N/A   Partly Cloudy
5:06 AM 68.0 °F - 64.4 °F 88% 30.17 in 7.0 mi Calm Calm - N/A   Clear
5:54 AM 68.0 °F - 64.9 °F 90% 30.18 in 7.0 mi Calm Calm - N/A   Clear
6:28 AM 69.8 °F - 66.2 °F 88% 30.19 in 6.0 mi Calm Calm - N/A   Mostly Cloudy
6:54 AM 71.1 °F - 68.0 °F 90% 30.20 in 5.0 mi Calm Calm - N/A   Mostly Cloudy
7:54 AM 75.9 °F - 70.0 °F 82% 30.21 in 8.0 mi Calm Calm - N/A   Clear
8:54 AM 79.0 °F - 72.0 °F 79% 30.22 in 10.0 mi SSW 4.6 mph - N/A   Clear
9:54 AM 82.9 °F 88.0 °F 72.0 °F 69% 30.21 in 10.0 mi West 5.8 mph - N/A   Clear
10:54 AM 84.9 °F 89.4 °F 70.0 °F 61% 30.20 in 10.0 mi Calm Calm - N/A   Clear
11:54 AM 88.0 °F 92.1 °F 69.1 °F 53% 30.19 in 10.0 mi Variable 3.5 mph - N/A   Clear
12:54 PM 89.1 °F 93.7 °F 69.1 °F 52% 30.18 in 10.0 mi Calm Calm - N/A   Scattered Clouds
1:54 PM 90.0 °F 93.6 °F 68.0 °F 48% 30.15 in 10.0 mi Variable 3.5 mph - N/A   Clear
2:54 PM 91.9 °F 94.1 °F 64.9 °F 41% 30.14 in 10.0 mi Calm Calm - N/A   Partly Cloudy
3:54 PM 91.0 °F 95.2 °F 68.0 °F 47% 30.13 in 10.0 mi South 4.6 mph - N/A   Clear
4:54 PM 88.0 °F 94.7 °F 72.0 °F 59% 30.12 in 10.0 mi SSE 8.1 mph - N/A   Partly Cloudy
5:54 PM 86.0 °F 90.1 °F 69.1 °F 57% 30.12 in 10.0 mi South 11.5 mph - N/A   Clear
6:54 PM 84.0 °F 87.8 °F 69.1 °F 61% 30.12 in 10.0 mi SSW 11.5 mph - N/A   Clear
7:54 PM 82.0 °F 84.9 °F 68.0 °F 62% 30.13 in 10.0 mi SSW 9.2 mph - N/A   Clear
8:54 PM 78.1 °F - 68.0 °F 71% 30.14 in 10.0 mi SSW 5.8 mph - N/A   Clear
9:54 PM 77.0 °F - 68.0 °F 74% 30.16 in 10.0 mi SW 8.1 mph - N/A   Clear
10:54 PM 75.0 °F - 68.0 °F 79% 30.17 in 10.0 mi SSW 4.6 mph - N/A   Clear
11:54 PM 75.0 °F - 68.0 °F 79% 30.16 in 10.0 mi SSW 6.9 mph - N/A   Clear